Miscellaneous Local Product
Issued by NWS Hastings, NE

Home | Current Version | Previous Version | Graphics & Text | Print | Product List | Glossary On
Versions: 1 2 3 4 5 6 7 8 9 10 11 12 13 14 15 16 17 18 19 20 21 22 23 24 25 26 27 28 29 30 31 32 33 34 35 36 37 38 39 40 41 42 43 44 45 46 47 48 49 50
000
AXUS43 KGID 191702
MISGRI

GID CWA HOURLY WEATHER ROUNDUP
NATIONAL WEATHER SERVICE HASTINGS NE
1100 AM CST SUN FEB 19 2017

NOTE: "FAIR" INDICATES FEW OR NO CLOUDS BELOW 12,000 FEET WITH NO
SIGNIFICANT WEATHER AND/OR OBSTRUCTIONS TO VISIBILITY.

...SOUTH CENTRAL NEBRASKA...

CITY           SKY/WX    TMP DP  RH WIND       PRES   REMARKS
GRAND ISLAND   MOSUNNY   58  51  78 S16       29.81S
HASTINGS       PTSUNNY   60  50  69 S16G24    29.82S
KEARNEY        MOSUNNY   57  48  72 S17G26    29.79F
ORD            PTSUNNY   57  47  69 S24       29.74S
YORK           CLOUDY    57  50  77 S17       29.83F
AURORA         CLOUDY    58  51  78 S15G21    29.82S
LEXINGTON      PTSUNNY   56  47  72 S13       29.76S
HOLDREGE       MOSUNNY   55  48  78 S16G23    29.78F
HEBRON         MOSUNNY   61  51  69 S13G20    29.86F

...NEBRASKA PANHANDLE...

CITY           SKY/WX    TMP DP  RH WIND       PRES   REMARKS
CHADRON        SUNNY     58  35  42 W3        29.59F
ALLIANCE       CLOUDY    46  31  55 SW6       29.65S
SCOTTSBLUFF    CLOUDY    44  30  57 CALM      29.67S
SIDNEY         CLOUDY    53  32  44 VRB3      29.68S

...WESTERN AND NORTH CENTRAL NEBRASKA...

CITY           SKY/WX    TMP DP  RH WIND       PRES   REMARKS
VALENTINE      MOSUNNY   54  36  50 SW15      29.64S
AINSWORTH      MOSUNNY   56  42  60 S24       29.65F
ONEILL         MOSUNNY   62  45  53 S18G25    29.71F
BROKEN BOW     MOSUNNY   56  47  71 S20G28    29.72F
IMPERIAL       CLOUDY    52  36  54 S10       29.72S
NORTH PLATTE   MOSUNNY   57  43  59 S10       29.72F
MCCOOK         MOSUNNY   54  46  74 S13       29.75S

...EASTERN NEBRASKA...

CITY           SKY/WX    TMP DP  RH WIND       PRES   REMARKS
NORFOLK        CLOUDY    56  47  71 S15G21    29.80R
SO SIOUX CITY  CLOUDY    55  47  74 SE14      29.82F
COLUMBUS       CLOUDY    57  48  72 S14       29.84S
ALBION         CLOUDY    54  47  80 S9        29.79F
OMAHA EPPLEY   CLOUDY    59  48  67 S17       29.88F
OFFUTT AFB     PTSUNNY   60  53  77 SE13      29.89F
MILLARD        PTSUNNY   61  51  69 SE12      29.88F
LINCOLN        MOSUNNY   63  50  62 S21       29.87F
NEBRASKA CITY  MOSUNNY   60  47  60 S14       29.91F
BEATRICE       CLOUDY    62  52  69 S15       29.89S
FALLS CITY     MOSUNNY   61  51  70 S14G22    29.93S

...NORTHERN KANSAS...

CITY           SKY/WX    TMP DP  RH WIND       PRES   REMARKS
GOODLAND       CLOUDY    60  37  42 S22G30    29.73R
HILL CITY      CLOUDY    58  49  72 S14       29.82S
NORTON         SUNNY     57  45  62 S10G16    29.79S
PHILLIPSBURG   SUNNY     61  48  63 SE8       29.82F
SMITH CENTER   SUNNY     61  52  72 S14G23    29.84S
HAYS           CLOUDY    54  50  86 S13       29.85F
RUSSELL        CLOUDY    54  50  86 S21       29.84F
CONCORDIA      SUNNY     60  53  77 S14       29.87S
SALINA         CLOUDY    56  53  90 S12       29.89F FOG
TOPEKA         MOSUNNY   61  52  72 S10       29.95F



USA.gov is the U.S. government's official web portal to all federal, state and local government web resources and services.